Volver al catálogo

SITRO-AIS-24

ActivoComunicacionesSSO
NORAD 61741·PAYLOAD·🇷🇺 Russia
Este nombre de satélite aún no ha sido confirmado por fuentes oficiales.

Lanzado Nov 4, 2024 desde Vostochny Cosmodrome

Loading…

Próximos Pases (próximas 24 horas)

TLE

ActualizadoSource: Space-Track

Época: Sep 14, 2026, 19:56 UTC

1 61741U 24199G   26257.83059731  .00002313  00000-0  20790-3 0  9992
2 61741  97.3224  90.1479 0013815 116.6745 243.5894 14.96505085145295

Sigue SITRO-AIS-24 en tiempo real con AllMySat

Download on the App Store